This is the latest recevied weather packets stored in our database for station/object PU5FJO-13. If no packets are shown the sender has not sent any weather packets the latest 10 day(s).
| Time | Temp. | Humidity | Pressure | Rain* | Wind** | Luminosity | Snow |
|---|---|---|---|---|---|---|---|
| 1777989373 | 24.44° C | 65% | 1019.6 hPa | - | - | - | - |
| 1777988773 | 24.44° C | 65% | 1019.7 hPa | - | - | - | - |
| 1777988173 | 24.44° C | 66% | 1019.6 hPa | - | - | - | - |
| 1777987573 | 23.89° C | 67% | 1019.7 hPa | - | - | - | - |
| 1777986973 | 23.33° C | 67% | 1019.7 hPa | - | - | - | - |
| 1777986373 | 23.33° C | 69% | 1019.7 hPa | - | - | - | - |
| 1777985773 | 23.33° C | 68% | 1019.6 hPa | - | - | - | - |
| 1777985173 | 22.78° C | 69% | 1019.4 hPa | - | - | - | - |
| 1777984573 | 22.78° C | 70% | 1019.4 hPa | - | - | - | - |
| 1777983973 | 22.78° C | 70% | 1019.3 hPa | - | - | - | - |
| 1777983373 | 22.22° C | 72% | 1019.1 hPa | - | - | - | - |
| 1777982773 | 22.22° C | 73% | 1019.1 hPa | - | - | - | - |
| 1777982173 | 21.67° C | 75% | 1019 hPa | - | - | - | - |
| 1777981573 | 21.67° C | 75% | 1018.9 hPa | - | - | - | - |
| 1777980973 | 21.11° C | 76% | 1018.9 hPa | - | - | - | - |
| 1777980373 | 21.11° C | 77% | 1018.7 hPa | - | - | - | - |
| 1777979773 | 21.11° C | 78% | 1018.6 hPa | - | - | - | - |
| 1777979173 | 20.56° C | 79% | 1018.6 hPa | - | - | - | - |
| 1777978573 | 20.56° C | 79% | 1018.4 hPa | - | - | - | - |
| 1777977973 | 20° C | 80% | 1018.4 hPa | - | - | - | - |
| 1777977373 | 20° C | 81% | 1018.3 hPa | - | - | - | - |
| 1777976773 | 20° C | 81% | 1018.2 hPa | - | - | - | - |
| 1777976173 | 19.44° C | 83% | 1018.1 hPa | - | - | - | - |
| 1777975573 | 18.89° C | 82% | 1018 hPa | - | - | - | - |
| 1777974973 | 19.44° C | 79% | 1018 hPa | - | - | - | - |
* Rain since midnight (hover to see other rain measurements)
** Current wind speed in m/s (hover to see current wind gust speed)